| time (UTC) | temp F | wind direction | speed MPH | gust MPH | rain 1hr in | rain 24hr in | rain mn in | humidity % | barometer mb |
| 20260506061602 | 55 | 44 | 0.0 | 2.0 | 0.00 | 0.04 | 0.00 | 81 | 1011.8 |
| 20260506044553 | 56 | 20 | 0.0 | 2.0 | 0.00 | 0.04 | 0.00 | 80 | 1012.9 |
| 20260506043049 | 56 | 20 | 0.0 | 2.0 | 0.00 | 0.04 | 0.00 | 79 | 1013.1 |
| 20260506041548 | 56 | 20 | 0.0 | 3.0 | 0.00 | 0.04 | 0.00 | 78 | 1012.8 |
| 20260506040045 | 57 | 20 | 0.0 | 2.0 | 0.00 | 0.04 | 0.00 | 77 | 1013.1 |
| 20260506034602 | 57 | 20 | 1.0 | 4.0 | 0.00 | 0.04 | 0.04 | 76 | 1013.2 |
| 20260506033043 | 57 | 58 | 0.0 | 4.0 | 0.00 | 0.04 | 0.04 | 76 | 1013.5 |
| 20260506031550 | 58 | 58 | 4.0 | 8.0 | 0.00 | 0.04 | 0.04 | 75 | 1013.4 |
| 20260506030039 | 58 | 31 | 1.0 | 4.0 | 0.00 | 0.04 | 0.04 | 74 | 1013.3 |
| 20260506024538 | 59 | 49 | 0.0 | 9.0 | 0.00 | 0.04 | 0.04 | 74 | 1013.3 |
| 20260506023034 | 60 | 46 | 5.0 | 11.0 | 0.00 | 0.04 | 0.04 | 77 | 1013.3 |
| 20260506021531 | 62 | 28 | 1.0 | 9.0 | 0.00 | 0.04 | 0.04 | 78 | 1012.8 |
| 20260506020034 | 62 | 52 | 5.0 | 11.0 | 0.00 | 0.04 | 0.04 | 77 | 1012.7 |
| 20260506014530 | 63 | 350 | 3.0 | 5.0 | 0.00 | 0.04 | 0.04 | 77 | 1012.6 |
| 20260506013030 | 63 | 335 | 1.0 | 12.0 | 0.00 | 0.04 | 0.04 | 79 | 1012.5 |
| 20260506011525 | 63 | 355 | 3.0 | 8.0 | 0.00 | 0.04 | 0.04 | 81 | 1012.0 |
| 20260506010046 | 63 | 40 | 2.0 | 5.0 | 0.00 | 0.04 | 0.04 | 81 | 1012.0 |
| 20260506004524 | 64 | 141 | 2.0 | 4.0 | 0.00 | 0.04 | 0.04 | 81 | 1011.1 |
| 20260506003023 | 64 | 218 | 1.0 | 4.0 | 0.00 | 0.04 | 0.04 | 80 | 1011.0 |
| 20260506001523 | 64 | 218 | 2.0 | 4.0 | 0.00 | 0.04 | 0.04 | 80 | 1010.9 |
| 20260506000022 | 64 | 218 | 2.0 | 3.0 | 0.00 | 0.04 | 0.04 | 78 | 1010.8 |
| 20260505234521 | 65 | 218 | 2.0 | 4.0 | 0.00 | 0.04 | 0.04 | 77 | 1010.8 |
| 20260505233021 | 65 | 218 | 2.0 | 4.0 | 0.00 | 0.04 | 0.04 | 77 | 1010.7 |
| 20260505231521 | 66 | 218 | 3.0 | 5.0 | 0.00 | 0.04 | 0.04 | 77 | 1010.8 |
| 20260505230026 | 66 | 221 | 2.0 | 5.0 | 0.00 | 0.04 | 0.04 | 76 | 1010.6 |
| 20260505224520 | 66 | 228 | 1.0 | 4.0 | 0.00 | 0.04 | 0.04 | 75 | 1010.5 |
| 20260505223019 | 66 | 227 | 3.0 | 5.0 | 0.00 | 0.04 | 0.04 | 76 | 1010.6 |
| 20260505221519 | 65 | 207 | 4.0 | 8.0 | 0.00 | 0.04 | 0.04 | 77 | 1010.7 |
| 20260505220022 | 66 | 227 | 6.0 | 9.0 | 0.00 | 0.04 | 0.04 | 76 | 1010.5 |
| 20260505214517 | 66 | 223 | 2.0 | 5.0 | 0.00 | 0.04 | 0.04 | 74 | 1010.0 |
| 20260505213023 | 67 | 198 | 1.0 | 6.0 | 0.00 | 0.04 | 0.04 | 75 | 1009.8 |
| 20260505211520 | 67 | 244 | 2.0 | 5.0 | 0.00 | 0.04 | 0.04 | 74 | 1009.9 |
| 20260505210018 | 66 | 211 | 3.0 | 6.0 | 0.00 | 0.04 | 0.04 | 76 | 1009.8 |
| 20260505204514 | 65 | 212 | 1.0 | 6.0 | 0.00 | 0.04 | 0.04 | 77 | 1010.1 |
| 20260505203025 | 65 | 218 | 2.0 | 4.0 | 0.01 | 0.04 | 0.04 | 76 | 1010.3 |
| 20260505201516 | 65 | 248 | 2.0 | 8.0 | 0.01 | 0.04 | 0.04 | 74 | 1010.3 |
| 20260505200012 | 64 | 229 | 3.0 | 13.0 | 0.01 | 0.04 | 0.04 | 74 | 1010.4 |
| 20260505194510 | 66 | 275 | 13.0 | 39.0 | 0.01 | 0.04 | 0.04 | 69 | 1010.9 |
| 20260505193010 | 78 | 238 | 11.0 | 27.0 | 0.00 | 0.03 | 0.03 | 34 | 1008.2 |
| 20260505191509 | 78 | 270 | 17.0 | 32.0 | 0.00 | 0.03 | 0.03 | 32 | 1007.9 |
| 20260505190007 | 78 | 234 | 12.0 | 24.0 | 0.00 | 0.03 | 0.03 | 36 | 1007.9 |
| 20260505184504 | 77 | 262 | 13.0 | 24.0 | 0.01 | 0.03 | 0.03 | 40 | 1008.7 |
| 20260505183002 | 77 | 236 | 7.0 | 21.0 | 0.01 | 0.03 | 0.03 | 45 | 1008.5 |
| 20260505181600 | 74 | 240 | 6.0 | 12.0 | 0.01 | 0.03 | 0.03 | 54 | 1009.2 |
| 20260505180058 | 73 | 228 | 13.0 | 20.0 | 0.01 | 0.03 | 0.03 | 51 | 1009.6 |
| 20260505174557 | 76 | 243 | 12.0 | 24.0 | 0.00 | 0.02 | 0.02 | 44 | 1009.8 |
| 20260505173104 | 75 | 257 | 9.0 | 21.0 | 0.00 | 0.02 | 0.02 | 45 | 1009.9 |
| 20260505171601 | 75 | 242 | 12.0 | 20.0 | 0.00 | 0.02 | 0.02 | 44 | 1009.8 |
| 20260505170057 | 76 | 211 | 10.0 | 19.0 | 0.00 | 0.02 | 0.02 | 43 | 1009.6 |
| 20260505164555 | 76 | 245 | 10.0 | 22.0 | 0.00 | 0.02 | 0.02 | 43 | 1009.2 |
| 20260505163052 | 76 | 222 | 7.0 | 18.0 | 0.00 | 0.02 | 0.02 | 43 | 1009.5 |
| 20260505161616 | 76 | 273 | 16.0 | 24.0 | 0.00 | 0.02 | 0.02 | 41 | 1009.8 |
| 20260505153050 | 76 | 237 | 15.0 | 27.0 | 0.00 | 0.02 | 0.02 | 42 | 1009.8 |
| 20260505151546 | 75 | 268 | 14.0 | 24.0 | 0.00 | 0.02 | 0.02 | 43 | 1010.0 |
| 20260505124519 | 65 | 231 | 5.0 | 11.0 | 0.00 | 0.02 | 0.02 | 61 | 1011.4 |
| 20260505123017 | 64 | 248 | 7.0 | 12.0 | 0.02 | 0.02 | 0.02 | 62 | 1011.3 |
| 20260505121518 | 62 | 210 | 8.0 | 11.0 | 0.02 | 0.02 | 0.02 | 65 | 1011.3 |
| 20260505120045 | 61 | 227 | 6.0 | 10.0 | 0.02 | 0.02 | 0.02 | 69 | 1011.3 |
| 20260505114513 | 62 | 208 | 8.0 | 15.0 | 0.02 | 0.02 | 0.02 | 67 | 1010.8 |
| 20260505113010 | 0 | 0.0 | 0.0 | 0.00 | 0.00 | 0.00 | 1011.8 | ||
| 20260505111506 | 0 | 0.0 | 0.0 | 0.00 | 0.00 | 0.00 | 1011.8 | ||
| 20260505101552 | 0 | 0.0 | 0.0 | 0.00 | 0.00 | 0.00 | 1010.9 | ||
| 20260505100044 | 0 | 0.0 | 0.0 | 0.00 | 0.00 | 0.00 | 1010.8 | ||
| 20260505094539 | 0 | 0.0 | 0.0 | 0.00 | 0.00 | 0.00 | 1010.6 | ||
| 20260505093040 | 0 | 0.0 | 0.0 | 0.00 | 0.00 | 0.00 | 1010.4 | ||
| 20260505091531 | 0 | 0.0 | 0.0 | 0.00 | 0.00 | 0.00 | 1010.4 | ||
| 20260505090038 | 0 | 0.0 | 0.0 | 0.00 | 0.00 | 0.00 | 1010.3 | ||
| 20260505084522 | 0 | 0.0 | 0.0 | 0.00 | 0.00 | 0.00 | 1010.2 | ||
| 20260505083019 | 62 | 234 | 1.0 | 3.0 | 0.00 | 0.00 | 0.00 | 55 | 1010.2 |
| 20260505081518 | 62 | 234 | 1.0 | 4.0 | 0.00 | 0.00 | 0.00 | 54 | 1010.4 |
| 20260505080019 | 63 | 227 | 0.0 | 4.0 | 0.00 | 0.00 | 0.00 | 53 | 1010.4 |
| 20260505074514 | 63 | 190 | 1.0 | 4.0 | 0.00 | 0.00 | 0.00 | 52 | 1010.5 |
| 20260505073024 | 64 | 198 | 3.0 | 6.0 | 0.00 | 0.00 | 0.00 | 51 | 1010.3 |
| 20260505071517 | 64 | 234 | 5.0 | 8.0 | 0.00 | 0.00 | 0.00 | 51 | 1010.4 |
| 20260505070010 | 64 | 221 | 3.0 | 7.0 | 0.00 | 0.00 | 0.00 | 51 | 1010.5 |